Weather History for KGPM - November, 2013

Change the Weather History Date:

Tuesday, November 12, 2013

  Actual Average (KDFW) Record (KDFW)
Temperature  
Mean Temperature 48 °F 58 °F  
Max Temperature 60 °F 68 °F 85 °F (1955)
Min Temperature 35 °F 48 °F 21 °F (1911)
Degree Days  
Heating Degree Days 18 8  
Month to date heating degree days 77  
Since 1 July heating degree days 149  
Cooling Degree Days 0 1  
Month to date cooling degree days 20  
Year to date cooling degree days 2743  
Moisture  
Dew Point 38 °F    
Average Humidity 65    
Maximum Humidity 82    
Minimum Humidity 42    
Precipitation  
Precipitation 0.00 in 0.10 in 1.95 in (1914)
Month to date precipitation 1.29  
Year to date precipitation 32.17  
Snow  
Snow 0.00 in 0.00 in 0.00 in ()
Month to date snowfall 0.0  
Since 1 July snowfall 0.0  
Since 1 September snowfall 0.0  
Snow Depth -    
Sea Level Pressure  
Sea Level Pressure 30.54 in    
Wind  
Wind Speed 9 mph (North)    
Max Wind Speed 25 mph    
Max Gust Speed 33 mph    
Visibility 10 miles    
Events      
T = Trace of Precipitation, MM = Missing Value Source: NWS Daily Summary

Daily Weather History Graph

Daily Weather History Graph

Search for Another Location

Airport or City:

Trip Planner

Search our weather history database for the weather conditions in past years. The results will help you decide how hot, cold, wet, or windy it might be!

Date:

Astronomy

Nov. 12, 2013 Rise Set
Actual Time 6:55 AM CST 5:28 PM CST
Civil Twilight 6:29 AM CST 5:54 PM CST
Nautical Twilight 6:00 AM CST 6:24 PM CST
Astronomical Twilight 5:30 AM CST 6:53 PM CST
Moon 2:29 PM CST (11/12) 2:02 AM CST (11/12)
Length of Visible Light 11h 24m
Length of Day
10h 32m
Waxing Gibbous, 76% of the Moon is Illuminated
Nov 12
Waxing Gibbous
Nov 17
Full
Nov 25
Last Quarter
Dec 2
New
Dec 9
First Quarter

Hourly Weather History & Observations

Time (CST) Temp. Windchill Dew Point Humidity Pressure Visibility Wind Dir Wind Speed Gust Speed Precip Events Conditions
12:15 AM 60.8 °F - 50.0 °F 68% 30.32 in 10.0 mi Calm Calm - N/A   Overcast
12:35 AM 60.8 °F - 50.0 °F 68% 30.32 in 10.0 mi Calm Calm - N/A   Overcast
12:55 AM 60.8 °F - 50.0 °F 68% 30.32 in 10.0 mi Calm Calm - N/A   Overcast
1:15 AM 60.8 °F - 51.8 °F 72% 30.33 in 10.0 mi Calm Calm - N/A   Overcast
1:35 AM 60.8 °F - 51.8 °F 72% 30.33 in 10.0 mi Calm Calm - N/A   Mostly Cloudy
1:55 AM 59.0 °F - 51.8 °F 77% 30.33 in 10.0 mi Calm Calm - N/A   Clear
2:15 AM 57.2 °F - 51.8 °F 82% 30.34 in 10.0 mi Calm Calm - N/A   Clear
2:35 AM 59.0 °F - 51.8 °F 77% 30.36 in 10.0 mi North 8.1 mph - N/A   Scattered Clouds
2:55 AM 60.8 °F - 51.8 °F 72% 30.37 in 10.0 mi NNW 5.8 mph - N/A   Mostly Cloudy
3:15 AM 60.8 °F - 53.6 °F 77% 30.37 in 10.0 mi North 10.4 mph 16.1 mph N/A   Scattered Clouds
3:35 AM 60.8 °F - 53.6 °F 77% 30.38 in 10.0 mi North 10.4 mph 18.4 mph N/A   Scattered Clouds
3:55 AM 60.8 °F - 53.6 °F 77% 30.39 in 10.0 mi North 20.7 mph 26.5 mph N/A   Mostly Cloudy
4:15 AM 59.0 °F - 51.8 °F 77% 30.41 in 10.0 mi North 25.3 mph 33.4 mph N/A   Mostly Cloudy
4:35 AM 53.6 °F - 48.2 °F 82% 30.43 in 10.0 mi North 20.7 mph 32.2 mph N/A   Overcast
4:55 AM 53.6 °F - 46.4 °F 77% 30.44 in 10.0 mi North 24.2 mph 33.4 mph N/A   Overcast
5:15 AM 51.8 °F - 46.4 °F 82% 30.46 in 10.0 mi North 20.7 mph 25.3 mph N/A   Overcast
5:35 AM 50.0 °F - 42.8 °F 76% 30.48 in 10.0 mi North 21.9 mph 27.6 mph N/A   Overcast
5:55 AM 50.0 °F - 42.8 °F 76% 30.50 in 10.0 mi North 17.3 mph 24.2 mph N/A   Overcast
7:50 AM 46.4 °F 39.2 °F 39.2 °F 76% 30.56 in 10.0 mi North 18.4 mph 29.9 mph N/A   Overcast
8:50 AM 46.4 °F 39.0 °F 35.6 °F 66% 30.61 in 10.0 mi North 19.6 mph 27.6 mph N/A   Mostly Cloudy
9:50 AM 46.4 °F 39.5 °F 35.6 °F 66% 30.63 in 10.0 mi North 17.3 mph 28.8 mph N/A   Mostly Cloudy
10:50 AM 48.2 °F - 33.8 °F 58% 30.64 in 10.0 mi North 13.8 mph 26.5 mph N/A   Clear
11:50 AM 48.2 °F - 32.0 °F 54% 30.64 in 10.0 mi North 20.7 mph 27.6 mph N/A   Clear
12:50 PM - - - N/A% 30.63 in 10.0 mi North 20.7 mph 28.8 mph N/A   Clear
1:50 PM - - - N/A% 30.61 in 10.0 mi North - - N/A   Clear
2:50 PM - - - N/A% 30.61 in 10.0 mi North 21.9 mph 31.1 mph N/A   Clear
3:53 PM - - - N/A% 30.62 in 10.0 mi North 18.4 mph 27.6 mph N/A   Clear
4:50 PM - - - N/A% 30.64 in 10.0 mi North 18.4 mph 29.9 mph N/A   Clear
5:50 PM - - - N/A% 30.64 in 10.0 mi North 13.8 mph 25.3 mph N/A   Clear
8:15 PM 41.0 °F 33.1 °F 19.4 °F 42% 30.69 in 10.0 mi NNE 15.0 mph 20.7 mph N/A   Clear
8:35 PM 41.0 °F 34.3 °F 21.2 °F 45% 30.69 in 10.0 mi NNE 11.5 mph 17.3 mph N/A   Clear
8:55 PM 41.0 °F 34.7 °F 21.2 °F 45% 30.70 in 10.0 mi NNE 10.4 mph 16.1 mph N/A   Clear
9:15 PM 41.0 °F 35.2 °F 21.2 °F 45% 30.71 in 10.0 mi NNE 9.2 mph - N/A   Clear
9:35 PM 39.2 °F 33.6 °F 21.2 °F 49% 30.72 in 10.0 mi NNE 8.1 mph - N/A   Clear
9:55 PM 37.4 °F 28.9 °F 19.4 °F 48% 30.72 in 10.0 mi North 13.8 mph - N/A   Clear
10:15 PM 37.4 °F 30.3 °F 19.4 °F 48% 30.72 in 10.0 mi North 10.4 mph - N/A   Clear
10:35 PM 37.4 °F 30.3 °F 19.4 °F 48% 30.71 in 10.0 mi NNE 10.4 mph - N/A   Clear
10:55 PM 37.4 °F 32.1 °F 19.4 °F 48% 30.72 in 10.0 mi North 6.9 mph - N/A   Clear
11:15 PM 35.6 °F 28.6 °F 21.2 °F 56% 30.72 in 10.0 mi North 9.2 mph - N/A   Clear
11:35 PM 35.6 °F 29.9 °F 21.2 °F 56% 30.72 in 10.0 mi North 6.9 mph - N/A   Clear
11:55 PM 35.6 °F 29.2 °F 21.2 °F 56% 30.71 in 10.0 mi North 8.1 mph - N/A   Clear